Darstellungsparameter: Aktuell verwendete Einstellungen:
Skalierung der Graphiken ... ?
xyx+y,   Skalierungsfaktor:      Skalierung: Modus: x, Faktor: 1
Darstellungszeitraum ... ?
Vom - - bis: - -   Zeitraum: 07.05.2010 - 13.05.2010
Min/Max/Avg-Anzeige ... ?
Zeige MMA aktuell
Zeige MMA Monat
Zeige MMA alles
Zeige --A aktuell
Zeige --A Monat
Zeige --A alles
Keine MMA-Anzeige
MMA:
Average (ber die Originaldaten)
MMA-Basis: 07.05.2010 - 13.05.2010
Quicknavigation für Darstellung... ?
Tage:      1T, 2T, 3T, 5T -1T -2T -3T -5T +1T +2T +3T +5T
Wochen: 1W, 2W, 3W -1W -2W -3W +1W +2W +3W
Monate: 1M, 3M, 6M -1M -3M -6M +1M +3M +6M
Jahre:    1J, 3J, 5J, 10J -1J -3J -5J -10J +1J +3J +5J +10J
Nutze für die Darstellung ... ?
Originaldaten oder Mittelwerte auf ...
Stundenbasis Tagesbasis Wochenbasis
Monatsbasis Jahresbasis      Datenbasis: Original-Daten
Darstellen als:
Statistik (Auto) Statistik J:M      Darstellung:
Zur Graphik,    zurück zur Übersicht aller Sensoren.
 
Tabellarische Datenbersicht: ?
 
Sensor: Nr:Datum:Temp:Abs-Feuchte:Windchill:Wind:
Aussen-T/F 1 07-05-2010 00:11:02 5.4 C 6.63 g/m*3 5.4 C 0 km/h
2 07-05-2010 00:23:02 5.4 C 6.63 g/m*3 5.4 C 0 km/h
3 07-05-2010 00:35:02 5.4 C 6.63 g/m*3 5.4 C 0 km/h
4 07-05-2010 00:47:02 5.4 C 6.63 g/m*3 5.4 C 0 km/h
5 07-05-2010 00:59:02 5.4 C 6.63 g/m*3 5.4 C 0 km/h
6 07-05-2010 01:11:03 5.4 C 6.63 g/m*3 5.4 C 0 km/h
7 07-05-2010 01:23:03 5.4 C 6.63 g/m*3 5.4 C 0 km/h
8 07-05-2010 01:35:03 5.4 C 6.63 g/m*3 5.4 C 0 km/h
9 07-05-2010 01:47:03 5.4 C 6.63 g/m*3 5.4 C 0 km/h
10 07-05-2010 01:59:03 5.4 C 6.63 g/m*3 5.4 C 0 km/h
11 07-05-2010 02:11:03 5.4 C 6.63 g/m*3 5.4 C 0 km/h
12 07-05-2010 02:23:03 5.4 C 6.63 g/m*3 5.4 C 0 km/h
13 07-05-2010 02:35:03 5.4 C 6.63 g/m*3 5.4 C 0 km/h
14 07-05-2010 02:47:03 5.4 C 6.63 g/m*3 5.4 C 0 km/h
15 07-05-2010 02:59:03 5.4 C 6.63 g/m*3 5.4 C 0 km/h
16 07-05-2010 03:11:03 5.4 C 6.63 g/m*3 5.4 C 0 km/h
17 07-05-2010 03:23:03 5.4 C 6.63 g/m*3 5.4 C 0 km/h
18 07-05-2010 03:35:03 5.3 C 6.58 g/m*3 5.3 C 0 km/h
19 07-05-2010 03:47:03 5.3 C 6.58 g/m*3 5.3 C 0 km/h
20 07-05-2010 03:59:03 5.2 C 6.54 g/m*3 5.2 C 0 km/h
21 07-05-2010 04:11:03 5.2 C 6.54 g/m*3 5.2 C 0 km/h
22 07-05-2010 04:23:03 5.2 C 6.54 g/m*3 5.2 C 0 km/h
23 07-05-2010 04:35:03 5.2 C 6.54 g/m*3 5.2 C 0 km/h
24 07-05-2010 04:47:03 5.2 C 6.54 g/m*3 5.2 C 0 km/h
25 07-05-2010 04:59:03 5.1 C 6.5 g/m*3 5.1 C 0 km/h
Sensor: Nr:Datum:Temp:Abs-Feuchte:Windchill:Wind:
Aussen-T/F 26 07-05-2010 05:11:04 5 C 6.46 g/m*3 5 C 0 km/h
27 07-05-2010 05:23:04 5 C 6.46 g/m*3 5 C 0 km/h
28 07-05-2010 05:35:04 4.9 C 6.41 g/m*3 4.9 C 0 km/h
29 07-05-2010 05:47:04 4.8 C 6.37 g/m*3 4.8 C 0 km/h
30 07-05-2010 05:59:04 4.7 C 6.33 g/m*3 4.7 C 0 km/h
31 07-05-2010 06:11:04 4.7 C 6.33 g/m*3 4.7 C 0 km/h
32 07-05-2010 06:23:04 4.6 C 6.29 g/m*3 4.6 C 0 km/h
33 07-05-2010 06:35:04 4.5 C 6.24 g/m*3 4.5 C 0 km/h
34 07-05-2010 06:47:04 4.6 C 6.29 g/m*3 4.6 C 0 km/h
35 07-05-2010 06:59:04 4.6 C 6.29 g/m*3 4.6 C 0 km/h
36 07-05-2010 07:11:04 4.6 C 6.29 g/m*3 4.6 C 0 km/h
37 07-05-2010 07:23:04 4.7 C 6.33 g/m*3 4.7 C 0 km/h
38 07-05-2010 07:35:04 4.6 C 6.29 g/m*3 4.6 C 0 km/h
39 07-05-2010 07:47:04 4.7 C 6.33 g/m*3 4.7 C 0 km/h
40 07-05-2010 07:59:04 4.8 C 6.37 g/m*3 4.8 C 0 km/h
41 07-05-2010 08:11:04 4.9 C 6.41 g/m*3 4.9 C 0 km/h
42 07-05-2010 08:23:04 4.8 C 6.37 g/m*3 4.8 C 0 km/h
43 07-05-2010 08:35:02 5 C 6.46 g/m*3 5 C 0 km/h
44 07-05-2010 08:47:02 4.8 C 6.3 g/m*3 4.8 C 0 km/h
45 07-05-2010 08:59:02 4.6 C 6.22 g/m*3 4.6 C 0 km/h
46 07-05-2010 09:11:02 4.9 C 6.28 g/m*3 4.9 C 0 km/h
47 07-05-2010 09:23:03 4.8 C 6.24 g/m*3 4.8 C 0 km/h
48 07-05-2010 09:35:02 4.7 C 6.13 g/m*3 4.7 C 0 km/h
49 07-05-2010 09:47:02 5 C 6.12 g/m*3 5 C 0 km/h
50 07-05-2010 09:59:02 4.9 C 6.08 g/m*3 4.9 C 0 km/h
Sensor: Nr:Datum:Temp:Abs-Feuchte:Windchill:Wind:
Aussen-T/F 51 07-05-2010 10:11:02 5 C 6.05 g/m*3 5 C 0 km/h
52 07-05-2010 10:23:02 5.3 C 6.17 g/m*3 5.3 C 0 km/h
53 07-05-2010 10:35:02 6 C 6.39 g/m*3 6 C 0 km/h
54 07-05-2010 10:47:02 5.6 C 6.15 g/m*3 5.6 C 0 km/h
55 07-05-2010 10:59:02 5.7 C 6.12 g/m*3 5.7 C 0 km/h
56 07-05-2010 11:11:01 6.8 C 6.58 g/m*3 6.8 C 0 km/h
57 07-05-2010 11:23:02 7 C 6.66 g/m*3 7 C 0 km/h
58 07-05-2010 11:35:02 7.1 C 6.71 g/m*3 7.1 C 0 km/h
59 07-05-2010 11:47:02 7.1 C 6.71 g/m*3 7.1 C 0 km/h
60 07-05-2010 11:59:02 7.1 C 6.63 g/m*3 7.1 C 0 km/h
61 07-05-2010 12:11:03 7.1 C 6.4 g/m*3 7.1 C 0 km/h
62 07-05-2010 12:23:02 7 C 6.28 g/m*3 7 C 0 km/h
63 07-05-2010 12:35:02 7.1 C 6.4 g/m*3 7.1 C 0 km/h
64 07-05-2010 12:47:01 7.3 C 6.48 g/m*3 7.3 C 0 km/h
65 07-05-2010 12:59:01 7.2 C 6.2 g/m*3 7.2 C 0 km/h
66 07-05-2010 13:11:02 7.3 C 6.4 g/m*3 7.3 C 0 km/h
67 07-05-2010 13:23:01 7.8 C 6.61 g/m*3 7.8 C 0 km/h
68 07-05-2010 13:35:02 8.3 C 6.66 g/m*3 8.3 C 0 km/h
69 07-05-2010 13:47:01 7.9 C 6.49 g/m*3 7.9 C 0 km/h
70 07-05-2010 13:59:01 7.7 C 6.41 g/m*3 7.7 C 0 km/h
71 07-05-2010 14:11:02 8.6 C 6.87 g/m*3 8.6 C 0 km/h
72 07-05-2010 14:23:01 8.4 C 6.79 g/m*3 8.4 C 0 km/h
73 07-05-2010 14:35:02 8.5 C 6.92 g/m*3 8.5 C 0 km/h
74 07-05-2010 14:47:01 8.3 C 6.83 g/m*3 8.3 C 0 km/h
75 07-05-2010 14:59:01 8.3 C 6.66 g/m*3 8.3 C 0 km/h
Sensor: Nr:Datum:Temp:Abs-Feuchte:Windchill:Wind:
Aussen-T/F 76 07-05-2010 15:11:02 8.4 C 6.87 g/m*3 8.4 C 0 km/h
77 07-05-2010 15:23:02 7.8 C 6.61 g/m*3 7.8 C 0 km/h
78 07-05-2010 15:35:02 7.7 C 6.57 g/m*3 7.7 C 0 km/h
79 07-05-2010 15:47:02 8.5 C 7 g/m*3 8.5 C 0 km/h
80 07-05-2010 15:59:02 8.6 C 7.05 g/m*3 8.6 C 0 km/h
81 07-05-2010 16:11:01 9.3 C 7.19 g/m*3 9.3 C 0 km/h
82 07-05-2010 16:23:01 9.2 C 6.97 g/m*3 9.2 C 0 km/h
83 07-05-2010 16:35:01 9 C 6.61 g/m*3 9 C 0 km/h
84 07-05-2010 16:47:01 9.2 C 6.97 g/m*3 9.2 C 0 km/h
85 07-05-2010 16:59:01 9.1 C 6.92 g/m*3 9.1 C 0 km/h
86 07-05-2010 17:11:02 8.9 C 6.92 g/m*3 8.9 C 0 km/h
87 07-05-2010 17:23:01 9.2 C 6.97 g/m*3 9.2 C 0 km/h
88 07-05-2010 17:35:02 9.4 C 7.05 g/m*3 9.4 C 0 km/h
89 07-05-2010 17:47:01 9.8 C 7.24 g/m*3 9.8 C 0 km/h
90 07-05-2010 17:59:01 9.8 C 7.24 g/m*3 9.8 C 0 km/h
91 07-05-2010 18:11:02 9.8 C 7.24 g/m*3 9.8 C 0 km/h
92 07-05-2010 18:23:02 9.4 C 6.96 g/m*3 9.4 C 0 km/h
93 07-05-2010 18:35:02 9 C 6.88 g/m*3 9 C 0 km/h
94 07-05-2010 18:47:02 9 C 7.05 g/m*3 9 C 0 km/h
95 07-05-2010 18:59:02 8.5 C 7 g/m*3 8.5 C 0 km/h
96 07-05-2010 19:11:02 8.2 C 7.03 g/m*3 8.2 C 0 km/h
97 07-05-2010 19:23:02 8.1 C 6.99 g/m*3 8.1 C 0 km/h
98 07-05-2010 19:35:02 7.9 C 7.06 g/m*3 7.9 C 0 km/h
99 07-05-2010 19:47:02 7.6 C 7.09 g/m*3 7.6 C 0 km/h
100 07-05-2010 19:59:02 7.7 C 7.14 g/m*3 7.7 C 0 km/h
Sensor: Nr:Datum:Temp:Abs-Feuchte:Windchill:Wind:
Aussen-T/F 101 07-05-2010 20:11:02 7.3 C 7.03 g/m*3 7.3 C 0 km/h
102 07-05-2010 20:23:01 7.3 C 7.03 g/m*3 7.3 C 0 km/h
103 07-05-2010 20:35:02 7.2 C 7.06 g/m*3 7.2 C 0 km/h
104 07-05-2010 20:47:02 7.1 C 7.1 g/m*3 7.1 C 0 km/h
105 07-05-2010 20:59:02 6.9 C 7.08 g/m*3 6.9 C 0 km/h
106 07-05-2010 21:11:02 6.7 C 6.99 g/m*3 6.7 C 0 km/h
107 07-05-2010 21:23:02 6.8 C 7.04 g/m*3 6.8 C 0 km/h
108 07-05-2010 21:35:02 6.8 C 7.11 g/m*3 6.8 C 0 km/h
109 07-05-2010 21:47:02 6.7 C 7.07 g/m*3 6.7 C 0 km/h
110 07-05-2010 21:59:02 6.4 C 6.93 g/m*3 6.4 C 0 km/h
111 07-05-2010 22:11:02 6.1 C 6.79 g/m*3 6.1 C 0 km/h
112 07-05-2010 22:23:02 5.9 C 6.71 g/m*3 5.9 C 0 km/h
113 07-05-2010 22:35:02 5.7 C 6.62 g/m*3 5.7 C 0 km/h
114 07-05-2010 22:47:02 5.6 C 6.57 g/m*3 5.6 C 0 km/h
115 07-05-2010 22:59:02 5.7 C 6.69 g/m*3 5.7 C 0 km/h
116 07-05-2010 23:11:01 5.9 C 6.78 g/m*3 5.9 C 0 km/h
117 07-05-2010 23:23:02 5.9 C 6.78 g/m*3 5.9 C 0 km/h
118 07-05-2010 23:35:02 5.9 C 6.85 g/m*3 5.9 C 0 km/h
119 07-05-2010 23:47:02 6 C 6.82 g/m*3 6 C 0 km/h
120 07-05-2010 23:59:03 6.1 C 6.87 g/m*3 6.1 C 0 km/h
121 08-05-2010 00:11:01 6.2 C 6.91 g/m*3 6.2 C 0 km/h
122 08-05-2010 00:23:02 6.2 C 6.91 g/m*3 6.2 C 0 km/h
123 08-05-2010 00:35:01 6 C 6.82 g/m*3 6 C 0 km/h
124 08-05-2010 00:47:02 5.6 C 6.65 g/m*3 5.6 C 0 km/h
125 08-05-2010 00:59:02 5.5 C 6.6 g/m*3 5.5 C 0 km/h
Sensor: Nr:Datum:Temp:Abs-Feuchte:Windchill:Wind:
Aussen-T/F 126 08-05-2010 01:11:02 5.4 C 6.56 g/m*3 5.4 C 0 km/h
127 08-05-2010 01:23:02 5.1 C 6.43 g/m*3 5.1 C 0 km/h
128 08-05-2010 01:35:02 4.9 C 6.35 g/m*3 4.9 C 0 km/h
129 08-05-2010 01:47:02 4.7 C 6.26 g/m*3 4.7 C 0 km/h
130 08-05-2010 01:59:02 4.7 C 6.33 g/m*3 4.7 C 0 km/h
131 08-05-2010 02:11:01 4.5 C 6.18 g/m*3 4.5 C 0 km/h
132 08-05-2010 02:23:02 4.5 C 6.24 g/m*3 4.5 C 0 km/h
133 08-05-2010 02:35:02 4.6 C 6.29 g/m*3 4.6 C 0 km/h
134 08-05-2010 02:48:03 4.4 C 6.2 g/m*3 4.4 C 0 km/h
135 08-05-2010 03:00:03 4.5 C 6.24 g/m*3 4.5 C 0 km/h
136 08-05-2010 03:12:03 4.6 C 6.29 g/m*3 4.6 C 0 km/h
137 08-05-2010 03:24:03 4.7 C 6.33 g/m*3 4.7 C 0 km/h
138 08-05-2010 03:36:02 4.6 C 6.29 g/m*3 4.6 C 0 km/h
139 08-05-2010 03:48:02 4.6 C 6.29 g/m*3 4.6 C 0 km/h
140 08-05-2010 04:00:02 4.7 C 6.33 g/m*3 4.7 C 0 km/h
141 08-05-2010 04:12:02 4.6 C 6.29 g/m*3 4.6 C 0 km/h
142 08-05-2010 04:24:02 4.4 C 6.2 g/m*3 4.4 C 0 km/h
143 08-05-2010 04:36:02 4 C 6.04 g/m*3 4 C 0 km/h
144 08-05-2010 04:48:02 4 C 6.04 g/m*3 4 C 0 km/h
145 08-05-2010 05:00:02 4.1 C 6.08 g/m*3 4.1 C 0 km/h
146 08-05-2010 05:12:01 4.2 C 6.12 g/m*3 4.2 C 0 km/h
147 08-05-2010 05:24:02 4.4 C 6.2 g/m*3 4.4 C 0 km/h
148 08-05-2010 05:36:02 4.5 C 6.24 g/m*3 4.5 C 0 km/h
149 08-05-2010 05:48:02 4.5 C 6.24 g/m*3 4.5 C 0 km/h
150 08-05-2010 06:00:02 4.5 C 6.24 g/m*3 4.5 C 0 km/h
Sensor: Nr:Datum:Temp:Abs-Feuchte:Windchill:Wind:
Aussen-T/F 151 08-05-2010 06:12:03 4.6 C 6.29 g/m*3 4.6 C 0 km/h
152 08-05-2010 06:24:02 4.6 C 6.29 g/m*3 4.6 C 0 km/h
153 08-05-2010 06:36:02 4.8 C 6.37 g/m*3 4.8 C 0 km/h
154 08-05-2010 06:48:01 4.8 C 6.37 g/m*3 4.8 C 0 km/h
155 08-05-2010 07:00:01 4.8 C 6.37 g/m*3 4.8 C 0 km/h
156 08-05-2010 07:12:02 5 C 6.46 g/m*3 5 C 0 km/h
157 08-05-2010 07:24:01 5.2 C 6.54 g/m*3 5.2 C 0 km/h
158 08-05-2010 07:36:01 5.5 C 6.67 g/m*3 5.5 C 0 km/h
159 08-05-2010 07:48:01 5.6 C 6.72 g/m*3 5.6 C 0 km/h
160 08-05-2010 08:00:01 5.9 C 6.78 g/m*3 5.9 C 0 km/h
161 08-05-2010 08:12:02 6 C 6.68 g/m*3 6 C 0 km/h
162 08-05-2010 08:24:01 5.8 C 6.52 g/m*3 5.8 C 0 km/h
163 08-05-2010 08:36:01 6.2 C 6.55 g/m*3 6.2 C 0 km/h
164 08-05-2010 08:48:01 6.5 C 6.6 g/m*3 6.5 C 0 km/h
165 08-05-2010 09:00:01 7.3 C 6.87 g/m*3 7.3 C 0 km/h
166 08-05-2010 09:12:02 8 C 7.03 g/m*3 8 C 0 km/h
167 08-05-2010 09:24:01 8.1 C 6.82 g/m*3 8.1 C 0 km/h
168 08-05-2010 09:36:01 8.7 C 7.01 g/m*3 8.7 C 0 km/h
169 08-05-2010 09:48:01 9.2 C 7.05 g/m*3 9.2 C 0 km/h
170 08-05-2010 10:00:01 9.1 C 6.74 g/m*3 9.1 C 0 km/h
171 08-05-2010 10:12:02 9.1 C 6.57 g/m*3 9.1 C 0 km/h
172 08-05-2010 10:24:01 9.6 C 6.87 g/m*3 9.6 C 0 km/h
173 08-05-2010 10:36:01 10.1 C 6.9 g/m*3 10.1 C 0 km/h
174 08-05-2010 10:48:01 10.4 C 7.04 g/m*3 10.4 C 0 km/h
175 08-05-2010 11:00:01 11.2 C 7.3 g/m*3 11.2 C 0 km/h
Sensor: Nr:Datum:Temp:Abs-Feuchte:Windchill:Wind:
Aussen-T/F 176 08-05-2010 11:12:02 12.1 C 7.18 g/m*3 12.1 C 0 km/h
177 08-05-2010 11:24:01 12.8 C 7.06 g/m*3 12.8 C 0 km/h
178 08-05-2010 11:36:01 14.1 C 6.31 g/m*3 14.1 C 0 km/h
179 08-05-2010 11:48:01 15.1 C 5.55 g/m*3 15.1 C 0 km/h
180 08-05-2010 12:00:01 14.8 C 5.32 g/m*3 14.8 C 0 km/h
181 08-05-2010 12:12:01 14.5 C 4.97 g/m*3 14.5 C 0 km/h
182 08-05-2010 12:24:02 15.6 C 5.19 g/m*3 15.6 C 0 km/h
183 08-05-2010 12:36:01 15 C 4.74 g/m*3 15 C 0 km/h
184 08-05-2010 12:48:03 16.3 C 5.13 g/m*3 16.3 C 0 km/h
185 08-05-2010 13:00:03 16.5 C 5.2 g/m*3 16.5 C 0 km/h
186 08-05-2010 13:12:02 16 C 5.31 g/m*3 16 C 0 km/h
187 08-05-2010 13:24:02 15.8 C 5.25 g/m*3 15.8 C 0 km/h
188 08-05-2010 13:36:02 17.5 C 5.37 g/m*3 17.5 C 0 km/h
189 08-05-2010 13:48:02 18.4 C 4.88 g/m*3 18.4 C 0 km/h
190 08-05-2010 14:00:02 16.4 C 4.19 g/m*3 16.4 C 0 km/h
191 08-05-2010 14:12:02 15.5 C 4.1 g/m*3 15.5 C 0 km/h
192 08-05-2010 14:24:02 15 C 4.36 g/m*3 15 C 0 km/h
193 08-05-2010 14:36:01 15.6 C 4.39 g/m*3 15.6 C 0 km/h
194 08-05-2010 14:48:02 15.6 C 4.12 g/m*3 15.6 C 0 km/h
195 08-05-2010 15:00:02 16 C 4.22 g/m*3 16 C 0 km/h
196 08-05-2010 15:12:01 16.1 C 4.25 g/m*3 16.1 C 0 km/h
197 08-05-2010 15:24:02 16 C 4.36 g/m*3 16 C 0 km/h
198 08-05-2010 15:36:02 16 C 4.36 g/m*3 16 C 0 km/h
199 08-05-2010 15:48:02 15.5 C 4.63 g/m*3 15.5 C 0 km/h
200 08-05-2010 16:00:02 16.4 C 4.61 g/m*3 16.4 C 0 km/h
Sensor: Nr:Datum:Temp:Abs-Feuchte:Windchill:Wind:
Aussen-T/F 201 08-05-2010 16:12:03 16.6 C 4.38 g/m*3 16.6 C 0 km/h
202 08-05-2010 16:24:02 16.4 C 4.47 g/m*3 16.4 C 0 km/h
203 08-05-2010 16:36:02 17.5 C 4.32 g/m*3 17.5 C 0 km/h
204 08-05-2010 16:48:01 17.6 C 4.2 g/m*3 17.6 C 0 km/h
205 08-05-2010 17:00:01 17.4 C 4.15 g/m*3 17.4 C 0 km/h
206 08-05-2010 17:12:02 17.5 C 4.17 g/m*3 17.5 C 0 km/h
207 08-05-2010 17:24:01 18.5 C 4.27 g/m*3 18.5 C 0 km/h
208 08-05-2010 17:36:02 17.9 C 4.12 g/m*3 17.9 C 0 km/h
209 08-05-2010 17:48:01 18.7 C 4.16 g/m*3 18.7 C 0 km/h
210 08-05-2010 18:00:01 19.2 C 4.12 g/m*3 19.2 C 0 km/h
211 08-05-2010 18:12:02 19.9 C 3.95 g/m*3 19.9 C 0 km/h
212 08-05-2010 18:24:01 19.4 C 4 g/m*3 19.4 C 0 km/h
213 08-05-2010 18:36:02 19.5 C 4.2 g/m*3 19.5 C 0 km/h
214 08-05-2010 18:48:01 19.8 C 4.27 g/m*3 19.8 C 0 km/h
215 08-05-2010 19:00:01 19.1 C 4.1 g/m*3 19.1 C 0 km/h
216 08-05-2010 19:12:02 18.8 C 4.03 g/m*3 18.8 C 0 km/h
217 08-05-2010 19:24:02 18.4 C 4.25 g/m*3 18.4 C 0 km/h
218 08-05-2010 19:36:02 17.5 C 4.47 g/m*3 17.5 C 0 km/h
219 08-05-2010 19:48:01 17.6 C 4.65 g/m*3 17.6 C 0 km/h
220 08-05-2010 20:00:01 17.3 C 5.16 g/m*3 17.3 C 0 km/h
221 08-05-2010 20:12:02 16.5 C 6.04 g/m*3 16.5 C 0 km/h
222 08-05-2010 20:24:02 15.7 C 6.42 g/m*3 15.7 C 0 km/h
223 08-05-2010 20:36:02 15.1 C 6.06 g/m*3 15.1 C 0 km/h
224 08-05-2010 20:48:01 14.3 C 6.02 g/m*3 14.3 C 0 km/h
225 08-05-2010 21:00:01 13.8 C 5.96 g/m*3 13.8 C 0 km/h
Sensor: Nr:Datum:Temp:Abs-Feuchte:Windchill:Wind:
Aussen-T/F 226 08-05-2010 21:12:02 13.5 C 6.08 g/m*3 13.5 C 0 km/h
227 08-05-2010 21:24:02 13.5 C 6.43 g/m*3 13.5 C 0 km/h
228 08-05-2010 21:36:02 13.5 C 6.08 g/m*3 13.5 C 0 km/h
229 08-05-2010 21:48:02 12.9 C 5.97 g/m*3 12.9 C 0 km/h
230 08-05-2010 22:00:02 12.4 C 5.9 g/m*3 12.4 C 0 km/h
231 08-05-2010 22:12:02 11.9 C 6.04 g/m*3 11.9 C 0 km/h
232 08-05-2010 22:24:02 11.7 C 5.86 g/m*3 11.7 C 0 km/h
233 08-05-2010 22:36:01 11.8 C 6.21 g/m*3 11.8 C 0 km/h
234 08-05-2010 22:48:02 12 C 6.39 g/m*3 12 C 0 km/h
235 08-05-2010 23:00:02 11.8 C 6.21 g/m*3 11.8 C 0 km/h
236 08-05-2010 23:12:01 11.6 C 6.34 g/m*3 11.6 C 0 km/h
237 08-05-2010 23:24:02 11 C 6.21 g/m*3 11 C 0 km/h
238 08-05-2010 23:36:01 10.6 C 6.25 g/m*3 10.6 C 0 km/h
239 08-05-2010 23:48:02 10.3 C 6.22 g/m*3 10.3 C 0 km/h
240 09-05-2010 00:00:02 10.2 C 6.38 g/m*3 10.2 C 0 km/h
241 09-05-2010 00:12:02 10 C 6.39 g/m*3 10 C 0 km/h
242 09-05-2010 00:24:03 9.8 C 6.49 g/m*3 9.8 C 0 km/h
243 09-05-2010 00:36:02 9.6 C 6.41 g/m*3 9.6 C 0 km/h
244 09-05-2010 00:48:02 9.4 C 6.42 g/m*3 9.4 C 0 km/h
245 09-05-2010 01:00:02 9.1 C 6.39 g/m*3 9.1 C 0 km/h
246 09-05-2010 01:12:02 9 C 6.52 g/m*3 9 C 0 km/h
247 09-05-2010 01:24:03 8.7 C 6.49 g/m*3 8.7 C 0 km/h
248 09-05-2010 01:36:02 8.6 C 6.44 g/m*3 8.6 C 0 km/h
249 09-05-2010 01:48:03 8.7 C 6.57 g/m*3 8.7 C 0 km/h
250 09-05-2010 02:00:03 8.8 C 6.7 g/m*3 8.8 C 0 km/h
Sensor: Nr:Datum:Temp:Abs-Feuchte:Windchill:Wind:
Aussen-T/F 251 09-05-2010 02:12:02 8.7 C 6.66 g/m*3 8.7 C 0 km/h
252 09-05-2010 02:24:02 8.7 C 6.66 g/m*3 8.7 C 0 km/h
253 09-05-2010 02:36:02 8.4 C 6.53 g/m*3 8.4 C 0 km/h
254 09-05-2010 02:49:04 8.5 C 6.57 g/m*3 8.5 C 0 km/h
255 09-05-2010 03:01:04 8.5 C 6.66 g/m*3 8.5 C 0 km/h
256 09-05-2010 03:13:03 8.3 C 6.57 g/m*3 8.3 C 0 km/h
257 09-05-2010 03:25:03 8.5 C 6.66 g/m*3 8.5 C 0 km/h
258 09-05-2010 03:37:01 8.5 C 6.66 g/m*3 8.5 C 0 km/h
259 09-05-2010 03:49:01 8.5 C 6.66 g/m*3 8.5 C 0 km/h
260 09-05-2010 04:01:01 8.6 C 6.7 g/m*3 8.6 C 0 km/h
261 09-05-2010 04:13:01 8.6 C 6.7 g/m*3 8.6 C 0 km/h
262 09-05-2010 04:25:02 8.5 C 6.66 g/m*3 8.5 C 0 km/h
263 09-05-2010 04:37:01 8.5 C 6.66 g/m*3 8.5 C 0 km/h
264 09-05-2010 04:49:03 8.3 C 6.57 g/m*3 8.3 C 0 km/h
265 09-05-2010 05:01:02 8 C 6.45 g/m*3 8 C 0 km/h
266 09-05-2010 05:13:02 7.8 C 6.53 g/m*3 7.8 C 0 km/h
267 09-05-2010 05:25:02 7.6 C 6.53 g/m*3 7.6 C 0 km/h
268 09-05-2010 05:37:02 7.4 C 6.52 g/m*3 7.4 C 0 km/h
269 09-05-2010 05:49:02 7.4 C 6.52 g/m*3 7.4 C 0 km/h
270 09-05-2010 06:01:02 7.6 C 6.69 g/m*3 7.6 C 0 km/h
271 09-05-2010 06:13:02 7.9 C 6.82 g/m*3 7.9 C 0 km/h
272 09-05-2010 06:25:02 8 C 6.7 g/m*3 8 C 0 km/h
273 09-05-2010 06:37:02 8.1 C 6.74 g/m*3 8.1 C 0 km/h
274 09-05-2010 06:49:02 8.3 C 6.83 g/m*3 8.3 C 0 km/h
275 09-05-2010 07:01:02 8.5 C 6.92 g/m*3 8.5 C 0 km/h
Sensor: Nr:Datum:Temp:Abs-Feuchte:Windchill:Wind:
Aussen-T/F 276 09-05-2010 07:13:02 8.6 C 6.87 g/m*3 8.6 C 0 km/h
277 09-05-2010 07:25:01 8.7 C 6.83 g/m*3 8.7 C 0 km/h
278 09-05-2010 07:37:02 9.1 C 6.92 g/m*3 9.1 C 0 km/h
279 09-05-2010 07:49:02 9.1 C 6.83 g/m*3 9.1 C 0 km/h
280 09-05-2010 08:01:02 9.6 C 6.96 g/m*3 9.6 C 0 km/h
281 09-05-2010 08:13:02 9.6 C 6.96 g/m*3 9.6 C 0 km/h
282 09-05-2010 08:25:02 9.6 C 6.87 g/m*3 9.6 C 0 km/h
283 09-05-2010 08:37:02 10 C 7.05 g/m*3 10 C 0 km/h
284 09-05-2010 08:49:02 10.4 C 7.04 g/m*3 10.4 C 0 km/h
285 09-05-2010 09:01:02 10.8 C 7.02 g/m*3 10.8 C 0 km/h
286 09-05-2010 09:13:02 10.9 C 7.16 g/m*3 10.9 C 0 km/h
287 09-05-2010 09:25:02 11.1 C 6.95 g/m*3 11.1 C 0 km/h
288 09-05-2010 09:37:03 11.7 C 7.11 g/m*3 11.7 C 0 km/h
289 09-05-2010 09:49:02 12 C 6.93 g/m*3 12 C 0 km/h
290 09-05-2010 10:01:01 12.4 C 6.99 g/m*3 12.4 C 0 km/h
291 09-05-2010 10:13:01 12.7 C 7.12 g/m*3 12.7 C 0 km/h
292 09-05-2010 10:25:01 12.2 C 7.23 g/m*3 12.2 C 0 km/h
293 09-05-2010 10:37:02 12.2 C 7.55 g/m*3 12.2 C 0 km/h
294 09-05-2010 10:49:02 12 C 7.35 g/m*3 12 C 0 km/h
295 09-05-2010 11:01:01 12.2 C 7.55 g/m*3 12.2 C 0 km/h
296 09-05-2010 11:13:01 12.4 C 7.54 g/m*3 12.4 C 0 km/h
297 09-05-2010 11:25:02 12.3 C 7.38 g/m*3 12.3 C 0 km/h
298 09-05-2010 11:37:01 12.3 C 7.28 g/m*3 12.3 C 0 km/h
299 09-05-2010 11:49:02 12.2 C 7.23 g/m*3 12.2 C 0 km/h
300 09-05-2010 12:01:02 12.3 C 7.28 g/m*3 12.3 C 0 km/h
Sensor: Nr:Datum:Temp:Abs-Feuchte:Windchill:Wind:
Aussen-T/F 301 09-05-2010 12:13:02 13 C 7.37 g/m*3 13 C 0 km/h
302 09-05-2010 12:25:02 13.4 C 7.21 g/m*3 13.4 C 0 km/h
303 09-05-2010 12:37:02 14 C 7.24 g/m*3 14 C 0 km/h
304 09-05-2010 12:49:02 14.4 C 7.17 g/m*3 14.4 C 0 km/h
305 09-05-2010 13:01:01 15 C 6.92 g/m*3 15 C 0 km/h
306 09-05-2010 13:13:01 16.2 C 7.03 g/m*3 16.2 C 0 km/h
307 09-05-2010 13:25:01 17.2 C 6.59 g/m*3 17.2 C 0 km/h
308 09-05-2010 13:37:02 18.5 C 6.33 g/m*3 18.5 C 0 km/h
309 09-05-2010 13:49:02 18.2 C 6.22 g/m*3 18.2 C 0 km/h
310 09-05-2010 14:01:02 17.9 C 6.11 g/m*3 17.9 C 0 km/h
311 09-05-2010 14:13:02 17.5 C 6.11 g/m*3 17.5 C 0 km/h
312 09-05-2010 14:25:02 16.7 C 6.11 g/m*3 16.7 C 0 km/h
313 09-05-2010 14:37:01 16.7 C 6.11 g/m*3 16.7 C 0 km/h
314 09-05-2010 14:49:02 17 C 6.22 g/m*3 17 C 0 km/h
315 09-05-2010 15:01:01 17 C 6.22 g/m*3 17 C 0 km/h
316 09-05-2010 15:13:01 17.3 C 6.33 g/m*3 17.3 C 0 km/h
317 09-05-2010 15:25:02 17.6 C 6.3 g/m*3 17.6 C 0 km/h
318 09-05-2010 15:37:01 17.8 C 6.37 g/m*3 17.8 C 0 km/h
319 09-05-2010 15:49:03 17.9 C 6.26 g/m*3 17.9 C 0 km/h
320 09-05-2010 16:01:02 18 C 6.3 g/m*3 18 C 0 km/h
321 09-05-2010 16:13:02 18.7 C 6.4 g/m*3 18.7 C 0 km/h
322 09-05-2010 16:25:02 19.1 C 6.23 g/m*3 19.1 C 0 km/h
323 09-05-2010 16:37:02 18.7 C 6.08 g/m*3 18.7 C 0 km/h
324 09-05-2010 16:49:02 18 C 5.68 g/m*3 18 C 0 km/h
325 09-05-2010 17:01:02 17.8 C 5.77 g/m*3 17.8 C 0 km/h
Sensor: Nr:Datum:Temp:Abs-Feuchte:Windchill:Wind:
Aussen-T/F 326 09-05-2010 17:13:02 19.6 C 5.74 g/m*3 19.6 C 0 km/h
327 09-05-2010 17:25:02 19.5 C 5.03 g/m*3 19.5 C 0 km/h
328 09-05-2010 17:37:02 19.1 C 5.41 g/m*3 19.1 C 0 km/h
329 09-05-2010 17:49:02 19.4 C 5.17 g/m*3 19.4 C 0 km/h
330 09-05-2010 18:01:02 19.5 C 5.71 g/m*3 19.5 C 0 km/h
331 09-05-2010 18:13:02 18.9 C 5.67 g/m*3 18.9 C 0 km/h
332 09-05-2010 18:25:03 18.7 C 5.76 g/m*3 18.7 C 0 km/h
333 09-05-2010 18:37:02 18.3 C 5.79 g/m*3 18.3 C 0 km/h
334 09-05-2010 18:49:03 18.1 C 6.03 g/m*3 18.1 C 0 km/h
335 09-05-2010 19:01:02 17.6 C 6.6 g/m*3 17.6 C 0 km/h
336 09-05-2010 19:13:03 17 C 6.8 g/m*3 17 C 0 km/h
337 09-05-2010 19:25:02 17 C 6.95 g/m*3 17 C 0 km/h
338 09-05-2010 19:37:02 16.6 C 6.92 g/m*3 16.6 C 0 km/h
339 09-05-2010 19:49:01 16.2 C 6.9 g/m*3 16.2 C 0 km/h
340 09-05-2010 20:01:02 15.8 C 7 g/m*3 15.8 C 0 km/h
341 09-05-2010 20:13:02 15.2 C 6.88 g/m*3 15.2 C 0 km/h
342 09-05-2010 20:25:01 14.8 C 6.84 g/m*3 14.8 C 0 km/h
343 09-05-2010 20:37:01 14.3 C 6.88 g/m*3 14.3 C 0 km/h
344 09-05-2010 20:49:01 14 C 6.75 g/m*3 14 C 0 km/h
345 09-05-2010 21:01:02 13.4 C 6.97 g/m*3 13.4 C 0 km/h
346 09-05-2010 21:13:02 12.8 C 7.06 g/m*3 12.8 C 0 km/h
347 09-05-2010 21:25:02 12.5 C 7.15 g/m*3 12.5 C 0 km/h
348 09-05-2010 21:37:02 12.1 C 7.08 g/m*3 12.1 C 0 km/h
349 09-05-2010 21:49:02 11.7 C 7.11 g/m*3 11.7 C 0 km/h
350 09-05-2010 22:01:03 11.5 C 7.13 g/m*3 11.5 C 0 km/h
Sensor: Nr:Datum:Temp:Abs-Feuchte:Windchill:Wind:
Aussen-T/F 351 09-05-2010 22:13:03 11.3 C 7.14 g/m*3 11.3 C 0 km/h
352 09-05-2010 22:25:02 11.1 C 7.05 g/m*3 11.1 C 0 km/h
353 09-05-2010 22:38:04 10.9 C 6.96 g/m*3 10.9 C 0 km/h
354 09-05-2010 22:50:04 10.8 C 7.02 g/m*3 10.8 C 0 km/h
355 09-05-2010 23:02:04 10.8 C 7.12 g/m*3 10.8 C 0 km/h
356 09-05-2010 23:14:04 10.9 C 7.06 g/m*3 10.9 C 0 km/h
357 09-05-2010 23:26:05 10.7 C 7.07 g/m*3 10.7 C 0 km/h
358 09-05-2010 23:38:05 10.8 C 7.22 g/m*3 10.8 C 0 km/h
359 09-05-2010 23:50:05 10.5 C 7.08 g/m*3 10.5 C 0 km/h
360 10-05-2010 00:02:05 10.4 C 7.13 g/m*3 10.4 C 0 km/h
361 10-05-2010 00:14:05 10.5 C 7.18 g/m*3 10.5 C 0 km/h
362 10-05-2010 00:26:05 10.3 C 7.09 g/m*3 10.3 C 0 km/h
363 10-05-2010 00:38:05 10.1 C 7.09 g/m*3 10.1 C 0 km/h
364 10-05-2010 00:50:05 9.8 C 7.24 g/m*3 9.8 C 0 km/h
365 10-05-2010 01:02:05 9.8 C 7.24 g/m*3 9.8 C 0 km/h
366 10-05-2010 01:14:05 9.8 C 7.33 g/m*3 9.8 C 0 km/h
367 10-05-2010 01:26:05 9.9 C 7.38 g/m*3 9.9 C 0 km/h
368 10-05-2010 01:38:05 10 C 7.24 g/m*3 10 C 0 km/h
369 10-05-2010 01:50:05 9.8 C 7.24 g/m*3 9.8 C 0 km/h
370 10-05-2010 02:02:05 9.7 C 7.19 g/m*3 9.7 C 0 km/h
371 10-05-2010 02:14:05 9.5 C 7.19 g/m*3 9.5 C 0 km/h
372 10-05-2010 02:26:05 9.4 C 7.24 g/m*3 9.4 C 0 km/h
373 10-05-2010 02:38:05 9.4 C 7.24 g/m*3 9.4 C 0 km/h
374 10-05-2010 02:50:05 9.4 C 7.33 g/m*3 9.4 C 0 km/h
375 10-05-2010 03:02:05 9.2 C 7.23 g/m*3 9.2 C 0 km/h
Sensor: Nr:Datum:Temp:Abs-Feuchte:Windchill:Wind:
Aussen-T/F 376 10-05-2010 03:14:05 9 C 7.14 g/m*3 9 C 0 km/h
377 10-05-2010 03:26:05 8.8 C 7.14 g/m*3 8.8 C 0 km/h
378 10-05-2010 03:38:05 8.7 C 7.18 g/m*3 8.7 C 0 km/h
379 10-05-2010 03:50:06 8.7 C 7.26 g/m*3 8.7 C 0 km/h
380 10-05-2010 04:02:06 8.6 C 7.22 g/m*3 8.6 C 0 km/h
381 10-05-2010 04:14:06 8.6 C 7.22 g/m*3 8.6 C 0 km/h
382 10-05-2010 04:26:06 8.6 C 7.3 g/m*3 8.6 C 0 km/h
383 10-05-2010 04:38:06 8.6 C 7.3 g/m*3 8.6 C 0 km/h
384 10-05-2010 04:50:06 8.7 C 7.26 g/m*3 8.7 C 0 km/h
385 10-05-2010 05:02:06 8.6 C 7.22 g/m*3 8.6 C 0 km/h
386 10-05-2010 05:14:06 8.6 C 7.22 g/m*3 8.6 C 0 km/h
387 10-05-2010 05:26:06 8.6 C 7.3 g/m*3 8.6 C 0 km/h
388 10-05-2010 05:38:06 8.7 C 7.35 g/m*3 8.7 C 0 km/h
389 10-05-2010 05:50:06 8.8 C 7.31 g/m*3 8.8 C 0 km/h
390 10-05-2010 06:02:06 8.7 C 7.26 g/m*3 8.7 C 0 km/h
391 10-05-2010 06:14:06 8.7 C 7.26 g/m*3 8.7 C 0 km/h
392 10-05-2010 06:26:06 8.8 C 7.31 g/m*3 8.8 C 0 km/h
393 10-05-2010 06:38:04 8.9 C 7.36 g/m*3 8.9 C 0 km/h
394 10-05-2010 06:50:02 9 C 7.32 g/m*3 9 C 0 km/h
395 10-05-2010 07:02:02 9.1 C 7.36 g/m*3 9.1 C 0 km/h
396 10-05-2010 07:14:02 9.4 C 7.51 g/m*3 9.4 C 0 km/h
397 10-05-2010 07:26:01 9.6 C 7.6 g/m*3 9.6 C 0 km/h
398 10-05-2010 07:38:02 9.8 C 7.7 g/m*3 9.8 C 0 km/h
399 10-05-2010 07:50:02 10.2 C 7.71 g/m*3 10.2 C 0 km/h
400 10-05-2010 08:02:02 10.5 C 7.76 g/m*3 10.5 C 0 km/h
Sensor: Nr:Datum:Temp:Abs-Feuchte:Windchill:Wind:
Aussen-T/F 401 10-05-2010 08:14:02 10.6 C 7.71 g/m*3 10.6 C 0 km/h
402 10-05-2010 08:26:02 10.7 C 7.66 g/m*3 10.7 C 0 km/h
403 10-05-2010 08:38:02 10.7 C 7.46 g/m*3 10.7 C 0 km/h
404 10-05-2010 08:50:02 10.7 C 7.37 g/m*3 10.7 C 0 km/h
405 10-05-2010 09:02:02 10.8 C 7.41 g/m*3 10.8 C 0 km/h
406 10-05-2010 09:14:03 10.8 C 7.22 g/m*3 10.8 C 0 km/h
407 10-05-2010 09:26:02 10.7 C 7.27 g/m*3 10.7 C 0 km/h
408 10-05-2010 09:38:02 11 C 7.21 g/m*3 11 C 0 km/h
409 10-05-2010 09:50:02 11.1 C 7.25 g/m*3 11.1 C 0 km/h
410 10-05-2010 10:02:02 11.1 C 7.15 g/m*3 11.1 C 0 km/h
411 10-05-2010 10:14:02 11.4 C 7.08 g/m*3 11.4 C 0 km/h
412 10-05-2010 10:26:03 11.2 C 7.1 g/m*3 11.2 C 0 km/h
413 10-05-2010 10:38:02 11.6 C 7.17 g/m*3 11.6 C 0 km/h
414 10-05-2010 10:50:02 11.4 C 6.98 g/m*3 11.4 C 0 km/h
415 10-05-2010 11:02:02 11.5 C 7.13 g/m*3 11.5 C 0 km/h
416 10-05-2010 11:14:02 11.5 C 7.02 g/m*3 11.5 C 0 km/h
417 10-05-2010 11:26:02 11.5 C 7.02 g/m*3 11.5 C 0 km/h
418 10-05-2010 11:38:02 11.3 C 7.04 g/m*3 11.3 C 0 km/h
419 10-05-2010 11:50:02 11.7 C 7.22 g/m*3 11.7 C 0 km/h
420 10-05-2010 12:02:03 11.7 C 7.11 g/m*3 11.7 C 0 km/h
421 10-05-2010 12:14:03 11.6 C 6.96 g/m*3 11.6 C 0 km/h
422 10-05-2010 12:26:02 12.7 C 7.01 g/m*3 12.7 C 0 km/h
423 10-05-2010 12:38:03 12.9 C 6.76 g/m*3 12.9 C 0 km/h
424 10-05-2010 12:50:02 14.1 C 6.8 g/m*3 14.1 C 0 km/h
425 10-05-2010 13:02:02 13.5 C 6.43 g/m*3 13.5 C 0 km/h
Sensor: Nr:Datum:Temp:Abs-Feuchte:Windchill:Wind:
Aussen-T/F 426 10-05-2010 13:14:02 13.5 C 6.43 g/m*3 13.5 C 0 km/h
427 10-05-2010 13:26:01 14.7 C 6.17 g/m*3 14.7 C 0 km/h
428 10-05-2010 13:38:02 15.3 C 6.4 g/m*3 15.3 C 0 km/h
429 10-05-2010 13:50:02 15.4 C 6.18 g/m*3 15.4 C 0 km/h
430 10-05-2010 14:02:02 15.3 C 6.01 g/m*3 15.3 C 0 km/h
431 10-05-2010 14:14:02 15.5 C 6.08 g/m*3 15.5 C 0 km/h
432 10-05-2010 14:26:02 14.8 C 5.95 g/m*3 14.8 C 0 km/h
433 10-05-2010 14:38:02 14.7 C 5.92 g/m*3 14.7 C 0 km/h
434 10-05-2010 14:50:02 14.7 C 5.92 g/m*3 14.7 C 0 km/h
435 10-05-2010 15:02:02 15 C 5.77 g/m*3 15 C 0 km/h
436 10-05-2010 15:14:02 15.4 C 5.78 g/m*3 15.4 C 0 km/h
437 10-05-2010 15:26:02 15.1 C 5.93 g/m*3 15.1 C 0 km/h
438 10-05-2010 15:38:02 15.3 C 5.62 g/m*3 15.3 C 0 km/h
439 10-05-2010 15:50:02 14.7 C 5.79 g/m*3 14.7 C 0 km/h
440 10-05-2010 16:02:02 15.2 C 5.84 g/m*3 15.2 C 0 km/h
441 10-05-2010 16:14:02 15.8 C 5.79 g/m*3 15.8 C 0 km/h
442 10-05-2010 16:26:02 15.7 C 5.49 g/m*3 15.7 C 0 km/h
443 10-05-2010 16:38:02 16.2 C 5.52 g/m*3 16.2 C 0 km/h
444 10-05-2010 16:50:02 16.3 C 5.13 g/m*3 16.3 C 0 km/h
445 10-05-2010 17:02:02 15.5 C 5.42 g/m*3 15.5 C 0 km/h
446 10-05-2010 17:14:02 15.6 C 5.45 g/m*3 15.6 C 0 km/h
447 10-05-2010 17:26:02 16 C 5.31 g/m*3 16 C 0 km/h
448 10-05-2010 17:38:02 16 C 5.31 g/m*3 16 C 0 km/h
449 10-05-2010 17:50:01 15.8 C 5.38 g/m*3 15.8 C 0 km/h
450 10-05-2010 18:02:02 16.4 C 5.02 g/m*3 16.4 C 0 km/h
Sensor: Nr:Datum:Temp:Abs-Feuchte:Windchill:Wind:
Aussen-T/F 451 10-05-2010 18:14:02 17.3 C 5.01 g/m*3 17.3 C 0 km/h
452 10-05-2010 18:26:02 17.6 C 5.1 g/m*3 17.6 C 0 km/h
453 10-05-2010 18:38:01 17.1 C 4.66 g/m*3 17.1 C 0 km/h
454 10-05-2010 18:50:02 15.8 C 4.71 g/m*3 15.8 C 0 km/h
455 10-05-2010 19:02:01 15.4 C 4.73 g/m*3 15.4 C 0 km/h
456 10-05-2010 19:14:01 15.6 C 4.92 g/m*3 15.6 C 0 km/h
457 10-05-2010 19:26:02 14.9 C 4.97 g/m*3 14.9 C 0 km/h
458 10-05-2010 19:38:01 14.7 C 5.04 g/m*3 14.7 C 0 km/h
459 10-05-2010 19:50:02 14.5 C 5.1 g/m*3 14.5 C 0 km/h
460 10-05-2010 20:02:01 14.5 C 4.97 g/m*3 14.5 C 0 km/h
461 10-05-2010 20:14:01 14.5 C 4.97 g/m*3 14.5 C 0 km/h
462 10-05-2010 20:26:02 14.3 C 5.04 g/m*3 14.3 C 0 km/h
463 10-05-2010 20:38:01 13.7 C 5.09 g/m*3 13.7 C 0 km/h
464 10-05-2010 20:50:02 13.1 C 5.14 g/m*3 13.1 C 0 km/h
465 10-05-2010 21:02:02 12.8 C 5.38 g/m*3 12.8 C 0 km/h
466 10-05-2010 21:14:02 12.3 C 5.43 g/m*3 12.3 C 0 km/h
467 10-05-2010 21:26:02 11.9 C 5.51 g/m*3 11.9 C 0 km/h
468 10-05-2010 21:38:02 11.6 C 5.4 g/m*3 11.6 C 0 km/h
469 10-05-2010 21:50:02 11.5 C 5.58 g/m*3 11.5 C 0 km/h
470 10-05-2010 22:02:02 11.5 C 5.68 g/m*3 11.5 C 0 km/h
471 10-05-2010 22:14:02 11.5 C 5.58 g/m*3 11.5 C 0 km/h
472 10-05-2010 22:27:04 11.2 C 5.57 g/m*3 11.2 C 0 km/h
473 10-05-2010 22:39:04 11.1 C 5.54 g/m*3 11.1 C 0 km/h
474 10-05-2010 22:51:04 11.8 C 5.79 g/m*3 11.8 C 0 km/h
475 10-05-2010 23:03:04 11.6 C 5.92 g/m*3 11.6 C 0 km/h
Sensor: Nr:Datum:Temp:Abs-Feuchte:Windchill:Wind:
Aussen-T/F 476 10-05-2010 23:15:05 11.2 C 5.68 g/m*3 11.2 C 0 km/h
477 10-05-2010 23:27:05 11.3 C 5.81 g/m*3 11.3 C 0 km/h
478 10-05-2010 23:39:05 11.4 C 5.85 g/m*3 11.4 C 0 km/h
479 10-05-2010 23:51:05 11.2 C 5.78 g/m*3 11.2 C 0 km/h
480 11-05-2010 00:03:05 11 C 5.71 g/m*3 11 C 0 km/h
481 11-05-2010 00:15:05 11.1 C 5.74 g/m*3 11.1 C 0 km/h
482 11-05-2010 00:27:05 10.7 C 5.7 g/m*3 10.7 C 0 km/h
483 11-05-2010 00:39:05 10.8 C 5.83 g/m*3 10.8 C 0 km/h
484 11-05-2010 00:51:05 10.8 C 5.83 g/m*3 10.8 C 0 km/h
485 11-05-2010 01:03:05 10.4 C 5.88 g/m*3 10.4 C 0 km/h
486 11-05-2010 01:15:05 10.5 C 5.82 g/m*3 10.5 C 0 km/h
487 11-05-2010 01:27:05 10.5 C 5.92 g/m*3 10.5 C 0 km/h
488 11-05-2010 01:39:05 10.4 C 5.98 g/m*3 10.4 C 0 km/h
489 11-05-2010 01:51:05 10.3 C 6.03 g/m*3 10.3 C 0 km/h
490 11-05-2010 02:03:05 10.1 C 5.96 g/m*3 10.1 C 0 km/h
491 11-05-2010 02:15:05 10 C 6.01 g/m*3 10 C 0 km/h
492 11-05-2010 02:27:05 10.1 C 6.05 g/m*3 10.1 C 0 km/h
493 11-05-2010 02:39:05 10.1 C 6.05 g/m*3 10.1 C 0 km/h
494 11-05-2010 02:51:05 10.2 C 6.09 g/m*3 10.2 C 0 km/h
495 11-05-2010 03:03:05 10 C 6.11 g/m*3 10 C 0 km/h
496 11-05-2010 03:15:05 9.7 C 5.99 g/m*3 9.7 C 0 km/h
497 11-05-2010 03:27:05 9.9 C 6.07 g/m*3 9.9 C 0 km/h
498 11-05-2010 03:39:06 9.7 C 6.27 g/m*3 9.7 C 0 km/h
499 11-05-2010 03:51:06 9.6 C 6.32 g/m*3 9.6 C 0 km/h
500 11-05-2010 04:03:06 9.7 C 6.45 g/m*3 9.7 C 0 km/h
Sensor: Nr:Datum:Temp:Abs-Feuchte:Windchill:Wind:
Aussen-T/F 501 11-05-2010 04:15:06 9.5 C 6.1 g/m*3 9.5 C 0 km/h
502 11-05-2010 04:27:06 9.4 C 6.06 g/m*3 9.4 C 0 km/h
503 11-05-2010 04:39:06 9.3 C 6.02 g/m*3 9.3 C 0 km/h
504 11-05-2010 04:51:06 9.4 C 6.15 g/m*3 9.4 C 0 km/h
505 11-05-2010 05:03:06 9.4 C 6.15 g/m*3 9.4 C 0 km/h
506 11-05-2010 05:15:06 9.3 C 6.11 g/m*3 9.3 C 0 km/h
507 11-05-2010 05:27:06 9.5 C 6.19 g/m*3 9.5 C 0 km/h
508 11-05-2010 05:39:06 9.4 C 6.15 g/m*3 9.4 C 0 km/h
509 11-05-2010 05:51:06 9.3 C 6.2 g/m*3 9.3 C 0 km/h
510 11-05-2010 06:03:06 9.4 C 6.24 g/m*3 9.4 C 0 km/h
511 11-05-2010 06:15:06 9.3 C 6.11 g/m*3 9.3 C 0 km/h
512 11-05-2010 06:27:06 9.3 C 6.2 g/m*3 9.3 C 0 km/h
513 11-05-2010 06:39:06 9.1 C 6.12 g/m*3 9.1 C 0 km/h
514 11-05-2010 06:51:02 9.1 C 6.12 g/m*3 9.1 C 0 km/h
515 11-05-2010 07:03:01 9.3 C 6.29 g/m*3 9.3 C 0 km/h
516 11-05-2010 07:15:02 9.5 C 6.37 g/m*3 9.5 C 0 km/h
517 11-05-2010 07:27:02 9.6 C 6.32 g/m*3 9.6 C 0 km/h
518 11-05-2010 07:39:02 9.7 C 6.27 g/m*3 9.7 C 0 km/h
519 11-05-2010 07:51:01 9.9 C 6.35 g/m*3 9.9 C 0 km/h
520 11-05-2010 08:03:02 10.1 C 6.24 g/m*3 10.1 C 0 km/h
521 11-05-2010 08:15:01 10.5 C 6.3 g/m*3 10.5 C 0 km/h
522 11-05-2010 08:27:01 10.7 C 6.19 g/m*3 10.7 C 0 km/h
523 11-05-2010 08:39:01 11.2 C 6.28 g/m*3 11.2 C 0 km/h
524 11-05-2010 08:51:01 12 C 6.29 g/m*3 12 C 0 km/h
525 11-05-2010 09:03:02 11.7 C 6.07 g/m*3 11.7 C 0 km/h
Sensor: Nr:Datum:Temp:Abs-Feuchte:Windchill:Wind:
Aussen-T/F 526 11-05-2010 09:15:01 11.7 C 6.07 g/m*3 11.7 C 0 km/h
527 11-05-2010 09:27:01 11.9 C 6.14 g/m*3 11.9 C 0 km/h
528 11-05-2010 09:39:02 12.8 C 6.05 g/m*3 12.8 C 0 km/h
529 11-05-2010 09:51:01 12.7 C 5.79 g/m*3 12.7 C 0 km/h
530 11-05-2010 10:03:02 12.8 C 6.16 g/m*3 12.8 C 0 km/h
531 11-05-2010 10:15:02 13 C 6.01 g/m*3 13 C 0 km/h
532 11-05-2010 10:27:02 13 C 5.9 g/m*3 13 C 0 km/h
533 11-05-2010 10:39:01 12.3 C 5.97 g/m*3 12.3 C 0 km/h
534 11-05-2010 10:51:01 11.8 C 6.21 g/m*3 11.8 C 0 km/h
535 11-05-2010 11:03:01 12 C 6.07 g/m*3 12 C 0 km/h
536 11-05-2010 11:15:02 12 C 6.07 g/m*3 12 C 0 km/h
537 11-05-2010 11:27:02 12 C 6.18 g/m*3 12 C 0 km/h
538 11-05-2010 11:39:02 12.5 C 6.38 g/m*3 12.5 C 0 km/h
539 11-05-2010 11:51:02 14.1 C 6.19 g/m*3 14.1 C 0 km/h
540 11-05-2010 12:03:02 14.1 C 5.95 g/m*3 14.1 C 0 km/h
541 11-05-2010 12:15:02 13.7 C 6.28 g/m*3 13.7 C 0 km/h
542 11-05-2010 12:27:02 14.8 C 6.33 g/m*3 14.8 C 0 km/h
543 11-05-2010 12:39:01 14.1 C 5.95 g/m*3 14.1 C 0 km/h
544 11-05-2010 12:51:02 14.3 C 6.27 g/m*3 14.3 C 0 km/h
545 11-05-2010 13:03:01 13.4 C 6.16 g/m*3 13.4 C 0 km/h
546 11-05-2010 13:15:01 13.7 C 6.39 g/m*3 13.7 C 0 km/h
547 11-05-2010 13:27:01 14.2 C 6.23 g/m*3 14.2 C 0 km/h
548 11-05-2010 13:39:01 14.1 C 6.19 g/m*3 14.1 C 0 km/h
549 11-05-2010 13:51:02 13.3 C 6.35 g/m*3 13.3 C 0 km/h
550 11-05-2010 14:03:01 14.1 C 6.43 g/m*3 14.1 C 0 km/h
Sensor: Nr:Datum:Temp:Abs-Feuchte:Windchill:Wind:
Aussen-T/F 551 11-05-2010 14:15:01 14 C 6.27 g/m*3 14 C 0 km/h
552 11-05-2010 14:27:01 14.1 C 6.43 g/m*3 14.1 C 0 km/h
553 11-05-2010 14:39:02 14 C 6.39 g/m*3 14 C 0 km/h
554 11-05-2010 14:51:02 14 C 6.51 g/m*3 14 C 0 km/h
555 11-05-2010 15:03:02 14.4 C 6.55 g/m*3 14.4 C 0 km/h
556 11-05-2010 15:15:02 14.1 C 6.31 g/m*3 14.1 C 0 km/h
557 11-05-2010 15:27:02 14.7 C 6.55 g/m*3 14.7 C 0 km/h
558 11-05-2010 15:39:02 14.5 C 6.34 g/m*3 14.5 C 0 km/h
559 11-05-2010 15:51:02 14.3 C 6.39 g/m*3 14.3 C 0 km/h
560 11-05-2010 16:03:03 14.3 C 6.51 g/m*3 14.3 C 0 km/h
561 11-05-2010 16:15:02 14.8 C 6.71 g/m*3 14.8 C 0 km/h
562 11-05-2010 16:27:02 15.6 C 6.65 g/m*3 15.6 C 0 km/h
563 11-05-2010 16:39:03 15.9 C 6.5 g/m*3 15.9 C 0 km/h
564 11-05-2010 16:51:01 15.6 C 6.52 g/m*3 15.6 C 0 km/h
565 11-05-2010 17:03:02 14.9 C 6.75 g/m*3 14.9 C 0 km/h
566 11-05-2010 17:15:01 15.1 C 6.58 g/m*3 15.1 C 0 km/h
567 11-05-2010 17:27:01 14.7 C 6.8 g/m*3 14.7 C 0 km/h
568 11-05-2010 17:39:02 14.8 C 6.71 g/m*3 14.8 C 0 km/h
569 11-05-2010 17:51:01 14.7 C 6.8 g/m*3 14.7 C 0 km/h
570 11-05-2010 18:03:02 14.5 C 6.96 g/m*3 14.5 C 0 km/h
571 11-05-2010 18:15:02 13.9 C 7.07 g/m*3 13.9 C 0 km/h
572 11-05-2010 18:27:02 12.5 C 7.48 g/m*3 12.5 C 0 km/h
573 11-05-2010 18:39:02 11.9 C 8.05 g/m*3 11.9 C 0 km/h
574 11-05-2010 18:51:01 11.6 C 8.21 g/m*3 11.6 C 0 km/h
575 11-05-2010 19:03:02 11.3 C 8.16 g/m*3 11.3 C 0 km/h
Sensor: Nr:Datum:Temp:Abs-Feuchte:Windchill:Wind:
Aussen-T/F 576 11-05-2010 19:15:02 11.1 C 8.36 g/m*3 11.1 C 0 km/h
577 11-05-2010 19:27:02 10.9 C 8.36 g/m*3 10.9 C 0 km/h
578 11-05-2010 19:39:02 10.8 C 8.3 g/m*3 10.8 C 0 km/h
579 11-05-2010 19:51:01 10.6 C 8.39 g/m*3 10.6 C 0 km/h
580 11-05-2010 20:03:02 10.5 C 8.44 g/m*3 10.5 C 0 km/h
581 11-05-2010 20:15:02 10.2 C 8.37 g/m*3 10.2 C 0 km/h
582 11-05-2010 20:27:02 10.1 C 8.42 g/m*3 10.1 C 0 km/h
583 11-05-2010 20:39:02 10 C 8.46 g/m*3 10 C 0 km/h
584 11-05-2010 20:51:02 9.8 C 8.54 g/m*3 9.8 C 0 km/h
585 11-05-2010 21:03:01 9.8 C 8.54 g/m*3 9.8 C 0 km/h
586 11-05-2010 21:15:02 9.9 C 8.59 g/m*3 9.9 C 0 km/h
587 11-05-2010 21:27:03 10 C 8.64 g/m*3 10 C 0 km/h
588 11-05-2010 21:39:01 9.8 C 8.63 g/m*3 9.8 C 0 km/h
589 11-05-2010 21:51:02 9.8 C 8.63 g/m*3 9.8 C 0 km/h
590 11-05-2010 22:03:02 9.7 C 8.57 g/m*3 9.7 C 0 km/h
591 11-05-2010 22:15:01 9.6 C 8.52 g/m*3 9.6 C 0 km/h
592 11-05-2010 22:27:01 9.8 C 8.72 g/m*3 9.8 C 0 km/h
593 11-05-2010 22:40:03 9.6 C 8.61 g/m*3 9.6 C 0 km/h
594 11-05-2010 22:52:03 9.7 C 8.67 g/m*3 9.7 C 0 km/h
595 11-05-2010 23:04:03 9.8 C 8.72 g/m*3 9.8 C 0 km/h
596 11-05-2010 23:16:03 9.8 C 8.72 g/m*3 9.8 C 0 km/h
597 11-05-2010 23:28:03 9.8 C 8.72 g/m*3 9.8 C 0 km/h
598 11-05-2010 23:40:03 9.9 C 8.78 g/m*3 9.9 C 0 km/h
599 11-05-2010 23:52:03 9.7 C 8.67 g/m*3 9.7 C 0 km/h
600 12-05-2010 00:04:03 9.7 C 8.67 g/m*3 9.7 C 0 km/h
Sensor: Nr:Datum:Temp:Abs-Feuchte:Windchill:Wind:
Aussen-T/F 601 12-05-2010 00:16:03 9.6 C 8.61 g/m*3 9.6 C 0 km/h
602 12-05-2010 00:28:03 9.1 C 8.34 g/m*3 9.1 C 0 km/h
603 12-05-2010 00:40:03 9.1 C 8.34 g/m*3 9.1 C 0 km/h
604 12-05-2010 00:52:03 9.1 C 8.34 g/m*3 9.1 C 0 km/h
605 12-05-2010 01:04:03 9.1 C 8.34 g/m*3 9.1 C 0 km/h
606 12-05-2010 01:16:03 8.8 C 8.27 g/m*3 8.8 C 0 km/h
607 12-05-2010 01:28:04 8.5 C 8.03 g/m*3 8.5 C 0 km/h
608 12-05-2010 01:40:04 8.4 C 7.97 g/m*3 8.4 C 0 km/h
609 12-05-2010 01:52:04 7.8 C 7.75 g/m*3 7.8 C 0 km/h
610 12-05-2010 02:04:04 7.5 C 7.52 g/m*3 7.5 C 0 km/h
611 12-05-2010 02:16:04 7.8 C 7.75 g/m*3 7.8 C 0 km/h
612 12-05-2010 02:28:04 7.9 C 7.8 g/m*3 7.9 C 0 km/h
613 12-05-2010 02:40:04 7.9 C 7.8 g/m*3 7.9 C 0 km/h
614 12-05-2010 02:52:04 7.5 C 7.6 g/m*3 7.5 C 0 km/h
615 12-05-2010 03:04:04 7.3 C 7.43 g/m*3 7.3 C 0 km/h
616 12-05-2010 03:16:04 7.2 C 7.38 g/m*3 7.2 C 0 km/h
617 12-05-2010 03:28:04 7.1 C 7.33 g/m*3 7.1 C 0 km/h
618 12-05-2010 03:40:04 7 C 7.28 g/m*3 7 C 0 km/h
619 12-05-2010 03:52:04 7 C 7.21 g/m*3 7 C 0 km/h
620 12-05-2010 04:04:04 6.9 C 7.16 g/m*3 6.9 C 0 km/h
621 12-05-2010 04:16:04 6.9 C 7.08 g/m*3 6.9 C 0 km/h
622 12-05-2010 04:28:04 6.9 C 7.01 g/m*3 6.9 C 0 km/h
623 12-05-2010 04:40:04 6.9 C 6.93 g/m*3 6.9 C 0 km/h
624 12-05-2010 04:52:04 6.8 C 6.81 g/m*3 6.8 C 0 km/h
625 12-05-2010 05:04:04 6.8 C 6.73 g/m*3 6.8 C 0 km/h
Sensor: Nr:Datum:Temp:Abs-Feuchte:Windchill:Wind:
Aussen-T/F 626 12-05-2010 05:16:04 6.8 C 6.65 g/m*3 6.8 C 0 km/h
627 12-05-2010 05:28:04 6.8 C 6.65 g/m*3 6.8 C 0 km/h
628 12-05-2010 05:40:05 6.8 C 6.65 g/m*3 6.8 C 0 km/h
629 12-05-2010 05:52:05 6.8 C 6.65 g/m*3 6.8 C 0 km/h
630 12-05-2010 06:04:05 6.7 C 6.61 g/m*3 6.7 C 0 km/h
631 12-05-2010 06:16:05 6.8 C 6.58 g/m*3 6.8 C 0 km/h
632 12-05-2010 06:28:05 6.8 C 6.5 g/m*3 6.8 C 0 km/h
633 12-05-2010 06:40:05 6.8 C 6.58 g/m*3 6.8 C 0 km/h
634 12-05-2010 06:52:05 6.8 C 6.58 g/m*3 6.8 C 0 km/h
635 12-05-2010 07:04:03 6.9 C 6.54 g/m*3 6.9 C 0 km/h
636 12-05-2010 07:16:03 7 C 6.59 g/m*3 7 C 0 km/h
637 12-05-2010 07:28:03 7.1 C 6.71 g/m*3 7.1 C 0 km/h
638 12-05-2010 07:40:03 7.2 C 6.67 g/m*3 7.2 C 0 km/h
639 12-05-2010 07:52:02 7.2 C 6.59 g/m*3 7.2 C 0 km/h
640 12-05-2010 08:04:02 7.3 C 6.56 g/m*3 7.3 C 0 km/h
641 12-05-2010 08:16:02 7.6 C 6.69 g/m*3 7.6 C 0 km/h
642 12-05-2010 08:28:02 7.7 C 6.57 g/m*3 7.7 C 0 km/h
643 12-05-2010 08:40:02 7.8 C 6.45 g/m*3 7.8 C 0 km/h
644 12-05-2010 08:52:01 7.8 C 6.45 g/m*3 7.8 C 0 km/h
645 12-05-2010 09:04:02 8 C 6.37 g/m*3 8 C 0 km/h
646 12-05-2010 09:16:01 8.3 C 6.41 g/m*3 8.3 C 0 km/h
647 12-05-2010 09:28:01 8.4 C 6.19 g/m*3 8.4 C 0 km/h
648 12-05-2010 09:40:01 8.3 C 6.07 g/m*3 8.3 C 0 km/h
649 12-05-2010 09:52:01 8.4 C 6.11 g/m*3 8.4 C 0 km/h
650 12-05-2010 10:04:02 8.4 C 6.02 g/m*3 8.4 C 0 km/h
Sensor: Nr:Datum:Temp:Abs-Feuchte:Windchill:Wind:
Aussen-T/F 651 12-05-2010 10:16:01 8.6 C 6.1 g/m*3 8.6 C 0 km/h
652 12-05-2010 10:28:01 8.6 C 6.02 g/m*3 8.6 C 0 km/h
653 12-05-2010 10:40:01 8.7 C 5.97 g/m*3 8.7 C 0 km/h
654 12-05-2010 10:52:01 8.7 C 5.79 g/m*3 8.7 C 0 km/h
655 12-05-2010 11:04:01 8.7 C 5.79 g/m*3 8.7 C 0 km/h
656 12-05-2010 11:16:02 8.9 C 5.87 g/m*3 8.9 C 0 km/h
657 12-05-2010 11:28:02 8.9 C 5.61 g/m*3 8.9 C 0 km/h
658 12-05-2010 11:40:01 9.3 C 5.57 g/m*3 9.3 C 0 km/h
659 12-05-2010 11:52:01 10.1 C 5.67 g/m*3 10.1 C 0 km/h
660 12-05-2010 12:04:01 10 C 5.54 g/m*3 10 C 0 km/h
661 12-05-2010 12:16:02 9.7 C 5.35 g/m*3 9.7 C 0 km/h
662 12-05-2010 12:28:02 9.9 C 5.51 g/m*3 9.9 C 0 km/h
663 12-05-2010 12:40:01 10.5 C 5.33 g/m*3 10.5 C 0 km/h
664 12-05-2010 12:52:03 10.2 C 5.42 g/m*3 10.2 C 0 km/h
665 12-05-2010 13:04:02 10.5 C 5.43 g/m*3 10.5 C 0 km/h
666 12-05-2010 13:16:02 11.1 C 5.34 g/m*3 11.1 C 0 km/h
667 12-05-2010 13:28:02 10.7 C 5.3 g/m*3 10.7 C 0 km/h
668 12-05-2010 13:40:02 10.4 C 5.2 g/m*3 10.4 C 0 km/h
669 12-05-2010 13:52:02 10.7 C 5.21 g/m*3 10.7 C 0 km/h
670 12-05-2010 14:04:02 10.2 C 5.23 g/m*3 10.2 C 0 km/h
671 12-05-2010 14:16:02 10.2 C 5.23 g/m*3 10.2 C 0 km/h
672 12-05-2010 14:28:02 10.6 C 5.17 g/m*3 10.6 C 0 km/h
673 12-05-2010 14:40:01 10.9 C 5.17 g/m*3 10.9 C 0 km/h
674 12-05-2010 14:52:02 10.7 C 4.81 g/m*3 10.7 C 0 km/h
675 12-05-2010 15:04:01 11.1 C 5.14 g/m*3 11.1 C 0 km/h
Sensor: Nr:Datum:Temp:Abs-Feuchte:Windchill:Wind:
Aussen-T/F 676 12-05-2010 15:16:02 10.8 C 4.94 g/m*3 10.8 C 0 km/h
677 12-05-2010 15:28:02 10.8 C 4.84 g/m*3 10.8 C 0 km/h
678 12-05-2010 15:40:02 10.8 C 5.04 g/m*3 10.8 C 0 km/h
679 12-05-2010 15:52:02 10.7 C 5.11 g/m*3 10.7 C 0 km/h
680 12-05-2010 16:04:02 10.8 C 5.24 g/m*3 10.8 C 0 km/h
681 12-05-2010 16:16:02 10.9 C 5.17 g/m*3 10.9 C 0 km/h
682 12-05-2010 16:28:02 10.7 C 5.3 g/m*3 10.7 C 0 km/h
683 12-05-2010 16:40:02 10.3 C 5.17 g/m*3 10.3 C 0 km/h
684 12-05-2010 16:52:01 9.9 C 5.32 g/m*3 9.9 C 0 km/h
685 12-05-2010 17:04:02 9.6 C 5.22 g/m*3 9.6 C 0 km/h
686 12-05-2010 17:16:01 9.7 C 5.35 g/m*3 9.7 C 0 km/h
687 12-05-2010 17:28:01 9.9 C 5.32 g/m*3 9.9 C 0 km/h
688 12-05-2010 17:40:02 9.9 C 5.32 g/m*3 9.9 C 0 km/h
689 12-05-2010 17:52:02 9.6 C 5.22 g/m*3 9.6 C 0 km/h
690 12-05-2010 18:04:02 9.6 C 5.4 g/m*3 9.6 C 0 km/h
691 12-05-2010 18:16:01 9.3 C 5.39 g/m*3 9.3 C 0 km/h
692 12-05-2010 18:28:01 9.1 C 5.41 g/m*3 9.1 C 0 km/h
693 12-05-2010 18:40:02 9.1 C 5.5 g/m*3 9.1 C 0 km/h
694 12-05-2010 18:52:02 9 C 5.55 g/m*3 9 C 0 km/h
695 12-05-2010 19:04:02 9 C 5.64 g/m*3 9 C 0 km/h
696 12-05-2010 19:16:01 8.8 C 5.66 g/m*3 8.8 C 0 km/h
697 12-05-2010 19:28:01 9 C 5.73 g/m*3 9 C 0 km/h
698 12-05-2010 19:40:02 9 C 5.73 g/m*3 9 C 0 km/h
699 12-05-2010 19:52:02 8.7 C 5.71 g/m*3 8.7 C 0 km/h
700 12-05-2010 20:04:02 8.6 C 5.76 g/m*3 8.6 C 0 km/h
Sensor: Nr:Datum:Temp:Abs-Feuchte:Windchill:Wind:
Aussen-T/F 701 12-05-2010 20:16:02 8.6 C 5.84 g/m*3 8.6 C 0 km/h
702 12-05-2010 20:28:02 8.6 C 5.84 g/m*3 8.6 C 0 km/h
703 12-05-2010 20:40:02 8.5 C 5.81 g/m*3 8.5 C 0 km/h
704 12-05-2010 20:52:02 8.5 C 5.98 g/m*3 8.5 C 0 km/h
705 12-05-2010 21:04:02 8.5 C 5.89 g/m*3 8.5 C 0 km/h
706 12-05-2010 21:16:02 8.4 C 5.94 g/m*3 8.4 C 0 km/h
707 12-05-2010 21:28:02 8.5 C 6.06 g/m*3 8.5 C 0 km/h
708 12-05-2010 21:40:01 8.5 C 6.06 g/m*3 8.5 C 0 km/h
709 12-05-2010 21:52:02 8.3 C 6.07 g/m*3 8.3 C 0 km/h
710 12-05-2010 22:04:01 8 C 6.2 g/m*3 8 C 0 km/h
711 12-05-2010 22:17:03 8 C 6.37 g/m*3 8 C 0 km/h
712 12-05-2010 22:29:03 7.6 C 6.36 g/m*3 7.6 C 0 km/h
713 12-05-2010 22:41:03 7.5 C 6.48 g/m*3 7.5 C 0 km/h
714 12-05-2010 22:53:03 7.7 C 6.65 g/m*3 7.7 C 0 km/h
715 12-05-2010 23:05:03 7.8 C 6.69 g/m*3 7.8 C 0 km/h
716 12-05-2010 23:17:03 7.8 C 6.69 g/m*3 7.8 C 0 km/h
717 12-05-2010 23:29:03 7.8 C 6.69 g/m*3 7.8 C 0 km/h
718 12-05-2010 23:41:04 7.9 C 6.74 g/m*3 7.9 C 0 km/h
719 12-05-2010 23:53:04 7.7 C 6.57 g/m*3 7.7 C 0 km/h
720 13-05-2010 00:05:04 7.7 C 6.57 g/m*3 7.7 C 0 km/h
721 13-05-2010 00:17:04 7.6 C 6.53 g/m*3 7.6 C 0 km/h
722 13-05-2010 00:29:04 7.5 C 6.4 g/m*3 7.5 C 0 km/h
723 13-05-2010 00:41:04 7.6 C 6.44 g/m*3 7.6 C 0 km/h
724 13-05-2010 00:53:04 7.5 C 6.4 g/m*3 7.5 C 0 km/h
725 13-05-2010 01:05:04 7.4 C 6.36 g/m*3 7.4 C 0 km/h
Sensor: Nr:Datum:Temp:Abs-Feuchte:Windchill:Wind:
Aussen-T/F 726 13-05-2010 01:17:04 7.3 C 6.48 g/m*3 7.3 C 0 km/h
727 13-05-2010 01:29:04 7.3 C 6.48 g/m*3 7.3 C 0 km/h
728 13-05-2010 01:41:04 7.3 C 6.56 g/m*3 7.3 C 0 km/h
729 13-05-2010 01:53:04 7.4 C 6.68 g/m*3 7.4 C 0 km/h
730 13-05-2010 02:05:04 7.5 C 6.72 g/m*3 7.5 C 0 km/h
731 13-05-2010 02:17:04 7.4 C 6.6 g/m*3 7.4 C 0 km/h
732 13-05-2010 02:29:04 7.4 C 6.52 g/m*3 7.4 C 0 km/h
733 13-05-2010 02:41:04 7.4 C 6.52 g/m*3 7.4 C 0 km/h
734 13-05-2010 02:53:04 7.4 C 6.52 g/m*3 7.4 C 0 km/h
735 13-05-2010 03:05:04 7.4 C 6.52 g/m*3 7.4 C 0 km/h
736 13-05-2010 03:17:04 7.4 C 6.52 g/m*3 7.4 C 0 km/h
737 13-05-2010 03:29:04 7.3 C 6.48 g/m*3 7.3 C 0 km/h
738 13-05-2010 03:41:05 7.3 C 6.56 g/m*3 7.3 C 0 km/h
739 13-05-2010 03:53:05 7.1 C 6.47 g/m*3 7.1 C 0 km/h
740 13-05-2010 04:05:05 6.9 C 6.54 g/m*3 6.9 C 0 km/h
741 13-05-2010 04:17:05 7 C 6.51 g/m*3 7 C 0 km/h
742 13-05-2010 04:29:05 7.1 C 6.63 g/m*3 7.1 C 0 km/h
743 13-05-2010 04:41:05 7.1 C 6.63 g/m*3 7.1 C 0 km/h
744 13-05-2010 04:53:05 6.9 C 6.62 g/m*3 6.9 C 0 km/h
745 13-05-2010 05:05:05 6.9 C 6.7 g/m*3 6.9 C 0 km/h
746 13-05-2010 05:17:05 6.8 C 6.65 g/m*3 6.8 C 0 km/h
747 13-05-2010 05:29:05 6.8 C 6.65 g/m*3 6.8 C 0 km/h
748 13-05-2010 05:41:05 6.7 C 6.61 g/m*3 6.7 C 0 km/h
749 13-05-2010 05:53:05 6.6 C 6.64 g/m*3 6.6 C 0 km/h
750 13-05-2010 06:05:05 6.6 C 6.64 g/m*3 6.6 C 0 km/h
Sensor: Nr:Datum:Temp:Abs-Feuchte:Windchill:Wind:
Aussen-T/F 751 13-05-2010 06:17:05 6.7 C 6.69 g/m*3 6.7 C 0 km/h
752 13-05-2010 06:29:05 6.7 C 6.69 g/m*3 6.7 C 0 km/h
753 13-05-2010 06:41:05 6.6 C 6.64 g/m*3 6.6 C 0 km/h
754 13-05-2010 06:53:05 6.6 C 6.64 g/m*3 6.6 C 0 km/h
755 13-05-2010 07:05:05 6.7 C 6.76 g/m*3 6.7 C 0 km/h
756 13-05-2010 07:17:05 6.7 C 6.76 g/m*3 6.7 C 0 km/h
757 13-05-2010 07:29:05 6.9 C 6.77 g/m*3 6.9 C 0 km/h
758 13-05-2010 07:41:05 6.9 C 6.7 g/m*3 6.9 C 0 km/h
759 13-05-2010 07:53:01 6.8 C 6.5 g/m*3 6.8 C 0 km/h
760 13-05-2010 08:05:01 6.8 C 6.42 g/m*3 6.8 C 0 km/h
761 13-05-2010 08:17:02 6.8 C 6.35 g/m*3 6.8 C 0 km/h
762 13-05-2010 08:29:02 6.9 C 6.31 g/m*3 6.9 C 0 km/h
763 13-05-2010 08:41:01 7 C 6.12 g/m*3 7 C 0 km/h
764 13-05-2010 08:53:02 7.2 C 6.12 g/m*3 7.2 C 0 km/h
765 13-05-2010 09:05:01 7.5 C 6.24 g/m*3 7.5 C 0 km/h
766 13-05-2010 09:17:01 7.8 C 6.2 g/m*3 7.8 C 0 km/h
767 13-05-2010 09:29:01 7.9 C 6 g/m*3 7.9 C 0 km/h
768 13-05-2010 09:41:01 8.2 C 5.86 g/m*3 8.2 C 0 km/h
769 13-05-2010 09:53:02 8.3 C 5.65 g/m*3 8.3 C 0 km/h
770 13-05-2010 10:05:01 8.9 C 5.69 g/m*3 8.9 C 0 km/h
771 13-05-2010 10:17:02 9.1 C 5.41 g/m*3 9.1 C 0 km/h
772 13-05-2010 10:29:02 9.7 C 5.62 g/m*3 9.7 C 0 km/h
773 13-05-2010 10:41:02 9.7 C 5.16 g/m*3 9.7 C 0 km/h
774 13-05-2010 10:53:01 9.9 C 5.23 g/m*3 9.9 C 0 km/h
775 13-05-2010 11:05:02 10.2 C 5.23 g/m*3 10.2 C 0 km/h
Sensor: Nr:Datum:Temp:Abs-Feuchte:Windchill:Wind:
Aussen-T/F 776 13-05-2010 11:17:01 10 C 4.98 g/m*3 10 C 0 km/h
777 13-05-2010 11:29:01 10.1 C 4.92 g/m*3 10.1 C 0 km/h
778 13-05-2010 11:41:02 9.5 C 5.01 g/m*3 9.5 C 0 km/h
779 13-05-2010 11:53:02 9.7 C 5.16 g/m*3 9.7 C 0 km/h
780 13-05-2010 12:05:02 9.7 C 4.89 g/m*3 9.7 C 0 km/h
781 13-05-2010 12:17:01 9.5 C 4.92 g/m*3 9.5 C 0 km/h
782 13-05-2010 12:29:01 10.2 C 4.95 g/m*3 10.2 C 0 km/h
783 13-05-2010 12:41:02 10.1 C 4.63 g/m*3 10.1 C 0 km/h
784 13-05-2010 12:53:02 10.8 C 4.84 g/m*3 10.8 C 0 km/h
785 13-05-2010 13:05:02 11 C 4.8 g/m*3 11 C 0 km/h
786 13-05-2010 13:17:01 10.1 C 4.92 g/m*3 10.1 C 0 km/h
787 13-05-2010 13:29:01 9.3 C 4.94 g/m*3 9.3 C 0 km/h
788 13-05-2010 13:41:02 8.9 C 5.08 g/m*3 8.9 C 0 km/h
789 13-05-2010 13:53:02 9.4 C 5.16 g/m*3 9.4 C 0 km/h
790 13-05-2010 14:05:02 10 C 5.17 g/m*3 10 C 0 km/h
791 13-05-2010 14:17:02 10.5 C 5.14 g/m*3 10.5 C 0 km/h
792 13-05-2010 14:29:02 10.9 C 5.07 g/m*3 10.9 C 0 km/h
793 13-05-2010 14:41:02 10.6 C 4.78 g/m*3 10.6 C 0 km/h
794 13-05-2010 14:53:01 11 C 4.9 g/m*3 11 C 0 km/h
795 13-05-2010 15:05:02 11 C 4.8 g/m*3 11 C 0 km/h
796 13-05-2010 15:17:02 10.5 C 4.85 g/m*3 10.5 C 0 km/h
797 13-05-2010 15:29:02 10 C 4.79 g/m*3 10 C 0 km/h
798 13-05-2010 15:41:02 9.8 C 5.1 g/m*3 9.8 C 0 km/h
799 13-05-2010 15:53:02 9.2 C 5.36 g/m*3 9.2 C 0 km/h
800 13-05-2010 16:05:01 8.7 C 5.53 g/m*3 8.7 C 0 km/h
Sensor: Nr:Datum:Temp:Abs-Feuchte:Windchill:Wind:
Aussen-T/F 801 13-05-2010 16:17:02 8.5 C 5.81 g/m*3 8.5 C 0 km/h
802 13-05-2010 16:29:02 8.6 C 6.02 g/m*3 8.6 C 0 km/h
803 13-05-2010 16:41:01 8.6 C 6.19 g/m*3 8.6 C 0 km/h
804 13-05-2010 16:53:02 8.9 C 6.57 g/m*3 8.9 C 0 km/h
805 13-05-2010 17:05:01 8.4 C 6.19 g/m*3 8.4 C 0 km/h
806 13-05-2010 17:17:02 8.2 C 6.28 g/m*3 8.2 C 0 km/h
807 13-05-2010 17:29:03 8.2 C 6.36 g/m*3 8.2 C 0 km/h
808 13-05-2010 17:41:01 8.2 C 6.53 g/m*3 8.2 C 0 km/h
809 13-05-2010 17:53:02 8.1 C 6.49 g/m*3 8.1 C 0 km/h
810 13-05-2010 18:05:02 8.3 C 6.66 g/m*3 8.3 C 0 km/h
811 13-05-2010 18:17:02 9 C 7.05 g/m*3 9 C 0 km/h
812 13-05-2010 18:29:02 8.9 C 7.1 g/m*3 8.9 C 0 km/h
813 13-05-2010 18:41:02 8.7 C 7.01 g/m*3 8.7 C 0 km/h
814 13-05-2010 18:53:02 7.9 C 6.74 g/m*3 7.9 C 0 km/h
815 13-05-2010 19:05:02 7.7 C 6.81 g/m*3 7.7 C 0 km/h
816 13-05-2010 19:17:01 7.5 C 6.8 g/m*3 7.5 C 0 km/h
817 13-05-2010 19:29:01 7.3 C 6.72 g/m*3 7.3 C 0 km/h
818 13-05-2010 19:41:02 7.3 C 6.79 g/m*3 7.3 C 0 km/h
819 13-05-2010 19:53:02 7.2 C 6.75 g/m*3 7.2 C 0 km/h
820 13-05-2010 20:05:02 7.3 C 6.87 g/m*3 7.3 C 0 km/h
821 13-05-2010 20:17:02 7.4 C 6.92 g/m*3 7.4 C 0 km/h
822 13-05-2010 20:29:02 7.4 C 7 g/m*3 7.4 C 0 km/h
823 13-05-2010 20:41:02 7.5 C 7.04 g/m*3 7.5 C 0 km/h
824 13-05-2010 20:53:01 7.6 C 7.09 g/m*3 7.6 C 0 km/h
825 13-05-2010 21:05:02 7.5 C 7.12 g/m*3 7.5 C 0 km/h
Sensor: Nr:Datum:Temp:Abs-Feuchte:Windchill:Wind:
Aussen-T/F 826 13-05-2010 21:17:01 7.5 C 7.12 g/m*3 7.5 C 0 km/h
827 13-05-2010 21:29:01 7.4 C 7.08 g/m*3 7.4 C 0 km/h
828 13-05-2010 21:41:01 7.4 C 7.08 g/m*3 7.4 C 0 km/h
829 13-05-2010 21:53:01 7.4 C 7.16 g/m*3 7.4 C 0 km/h
830 13-05-2010 22:05:02 7.4 C 7.16 g/m*3 7.4 C 0 km/h
831 13-05-2010 22:17:01 7.4 C 7.16 g/m*3 7.4 C 0 km/h
832 13-05-2010 22:29:01 7.3 C 7.11 g/m*3 7.3 C 0 km/h
833 13-05-2010 22:41:02 7.2 C 7.06 g/m*3 7.2 C 0 km/h
834 13-05-2010 22:54:02 7.2 C 7.06 g/m*3 7.2 C 0 km/h
835 13-05-2010 23:06:02 7.2 C 7.06 g/m*3 7.2 C 0 km/h
836 13-05-2010 23:18:03 7.3 C 7.11 g/m*3 7.3 C 0 km/h
837 13-05-2010 23:30:03 7.3 C 7.19 g/m*3 7.3 C 0 km/h
838 13-05-2010 23:42:03 7.2 C 7.14 g/m*3 7.2 C 0 km/h
839 13-05-2010 23:54:03 7.2 C 7.14 g/m*3 7.2 C 0 km/h

Legende:
   Min
   Max


Maximal/Minimal-Werte vom 07.05.2010 - 13.05.2010

Sensor Min Max Avg
Temp
(Aussen-T/F)
4 °C
08-05-2010  04:36:02
19.9 °C
08-05-2010  18:12:02
10.05 °C
Abs-Feuchte
(Aussen-T/F)
3.95 g/m*3
08-05-2010  18:12:02
8.78 g/m*3
11-05-2010  23:40:03
6.39 g/m*3
Windchill
(Aussen-T/F)
4 C
08-05-2010  04:36:02
19.9 C
08-05-2010  18:12:02
10.04 C

Die Daten stammen von einer Davis Vantage Pro 2 Wetter-Station und werden unter Linux mit der Software wview2wettercgi und aufbereitet. Alle Angaben erfolgen ohne Gewähr für ihre Vollständigkeit oder Richtigkeit.
Kontakt: Rainer Krienke krienke@uni-koblenz.de . Meine Webseiten an der Uni Koblenz oder privat.
Version: $Revision: 0.78 $